GFSSW_250_spd_105.txt.gz
Wind_Speed
24 22 21 29 27 27 26 25 25 27 37 50 55 53 56 58 61 65 68 72 73 78 84 92 97 100 101 98 96 96 94 90 85 87 84 81 75 80 84 81 76 78 73 70 63
24 27 33 38 34 30 25 27 28 25 27 31 35 41 48 56 60 61 62 67 69 71 73 74 81 91 95 99 100 105 101 94 89 89 87 85 79 82 81 85 86 82 81 75 73
24 25 39 35 34 34 29 29 31 31 31 33 34 33 39 42 46 53 58 59 64 63 69 74 75 75 82 90 94 98 100 102 102 95 90 88 88 83 83 85 86 87 86 83 77
24 34 38 35 37 35 36 34 32 35 36 36 30 32 31 32 35 43 44 47 54 60 62 67 74 76 74 77 83 88 93 99 101 100 98 98 96 89 88 88 89 85 89 87 83
38 40 39 41 40 40 41 43 38 39 38 37 36 33 33 34 36 39 39 44 44 53 60 57 68 77 75 73 75 77 83 88 93 95 97 96 98 96 89 93 96 92 90 88 87
41 45 44 42 41 41 42 44 40 41 38 39 36 38 40 38 42 42 40 41 43 44 50 49 51 71 77 76 72 71 75 79 81 85 91 92 93 91 92 94 90 93 98 94 93
43 46 47 49 46 47 46 47 46 47 43 38 40 47 44 41 48 45 41 40 44 44 44 46 48 56 77 79 76 72 69 71 75 76 76 81 84 89 93 89 88 87 90 95 96
50 53 56 54 56 54 53 51 51 45 42 43 48 48 44 46 53 49 44 39 43 45 44 46 46 47 64 79 77 74 72 68 69 71 73 72 75 81 85 87 91 92 93 92 91
50 52 50 53 55 56 56 56 56 49 45 48 51 49 45 48 52 50 45 41 40 45 45 45 46 46 49 73 80 78 73 69 70 64 63 66 72 72 74 79 84 91 94 92 92
57 59 55 56 50 57 61 60 56 59 57 57 56 54 50 50 50 50 49 44 43 42 47 47 45 47 44 61 77 79 76 73 71 64 62 58 66 66 68 70 74 77 80 82 87
65 62 61 64 59 59 62 65 68 65 62 66 58 62 55 56 56 56 49 48 44 43 46 46 45 45 52 50 74 80 78 75 73 69 61 61 66 64 62 63 67 69 70 72 73
69 67 67 69 69 70 72 67 66 73 66 72 67 60 63 58 61 57 54 48 52 48 43 47 46 50 52 50 55 78 80 78 75 72 65 67 67 64 64 60 66 66 67 67 65
71 69 74 76 78 78 74 69 74 72 64 62 65 63 67 62 63 61 59 53 50 54 50 48 52 50 49 53 53 63 82 82 79 75 71 70 70 68 67 65 66 65 65 65 64
73 72 75 77 79 79 78 77 72 77 74 61 65 69 73 71 67 65 64 59 50 52 55 49 54 52 51 52 54 54 70 85 83 80 76 76 75 75 73 71 70 69 67 66 64
86 84 82 80 79 79 79 78 82 85 83 75 65 73 74 71 71 71 66 63 59 55 54 54 53 54 51 53 56 56 56 71 86 85 84 82 79 78 79 77 75 73 70 69 67
86 87 88 94 87 87 89 91 93 93 80 79 66 70 80 81 78 73 69 67 64 57 52 56 53 54 53 54 54 58 56 56 71 85 86 83 83 84 87 81 83 77 73 71 70
97 102 97 103 94 96 102 104 95 88 79 77 74 76 78 74 77 74 71 66 64 60 56 59 52 52 54 53 54 52 57 55 57 71 78 80 85 81 86 84 83 75 75 72 70
101 102 104 107 105 102 106 104 96 74 73 73 74 81 72 79 79 69 73 65 61 56 57 56 52 50 57 57 55 52 53 53 53 58 68 82 75 80 84 78 77 73 75 71 69
104 109 107 110 106 103 104 90 83 74 75 76 69 73 75 82 69 64 63 62 54 50 54 51 49 50 53 57 53 54 49 54 56 54 60 65 75 78 74 76 76 77 75 72 70
108 110 110 112 108 102 94 79 79 75 74 69 62 63 61 65 56 55 48 51 45 46 49 48 48 44 52 56 51 52 50 53 50 50 56 61 65 70 77 72 70 73 74 73 71
116 117 113 106 100 94 83 70 63 61 58 50 50 45 47 52 38 39 35 39 43 43 45 45 43 46 49 46 49 51 49 51 51 48 54 56 63 61 62 75 74 73 72 71 72
117 117 114 99 94 82 69 55 50 50 46 44 40 39 38 37 35 34 36 42 48 42 42 44 45 49 46 47 47 48 48 49 50 50 54 57 60 63 59 59 66 73 72 70 68
121 118 108 95 85 71 58 46 42 38 36 35 34 40 45 46 36 37 51 46 51 43 43 48 44 45 51 42 46 47 51 51 51 48 49 56 60 59 59 56 61 62 65 69 71
118 109 97 86 73 59 48 40 33 28 27 30 35 43 48 52 55 56 53 42 44 44 44 47 48 47 45 43 48 48 50 50 50 45 53 53 59 60 58 58 55 54 55 57 60
111 97 84 72 60 52 43 35 27 23 25 30 39 48 54 59 66 51 55 51 50 46 45 48 48 45 43 44 38 50 50 52 51 50 49 55 56 55 57 59 57 55 54 55 56
94 81 72 61 48 42 37 29 24 21 27 35 41 48 59 65 58 58 63 59 59 45 47 49 50 50 47 46 49 52 48 50 53 52 52 52 51 53 54 54 57 58 59 58 56
80 69 60 49 39 34 29 22 19 18 27 34 41 51 60 62 59 54 59 63 60 51 51 52 46 47 48 49 47 45 44 51 54 53 49 51 54 50 50 53 53 56 58 59 59

GFSSW_250_spd_111.txt.gz
Wind_Speed
18 18 19 19 23 23 22 21 23 24 24 27 29 39 44 46 50 58 76 81 86 94 98 99 101 103 104 102 103 103 97 89 89 90 91 97 99 88 80 82 75 74 76 69 64
19 20 22 21 27 29 28 29 27 28 28 26 27 27 31 39 40 45 43 47 51 60 64 77 85 91 97 103 104 102 100 98 101 100 97 104 103 96 87 82 84 84 81 82 71
21 21 23 25 29 34 37 36 35 32 30 30 28 27 25 30 32 43 43 46 45 47 49 54 62 72 79 91 98 103 97 101 100 107 106 108 105 97 90 83 82 86 89 88 81
26 25 29 31 32 40 41 39 38 40 39 36 33 35 32 39 35 38 36 44 49 51 54 53 55 56 62 70 83 86 92 101 97 104 106 102 103 98 96 89 95 96 94 92 87
36 35 34 36 41 46 46 42 44 45 43 41 39 33 32 41 41 42 46 42 39 42 47 54 57 60 59 60 63 68 76 83 93 96 102 104 98 98 96 94 96 98 100 93 92
41 42 42 44 47 48 49 49 51 52 47 45 43 37 34 43 38 44 50 51 46 47 49 47 50 53 57 60 63 62 66 70 77 85 94 97 95 99 95 95 96 96 98 98 95
41 39 44 45 46 51 54 53 54 55 53 48 44 46 36 53 41 48 53 58 54 55 55 54 50 51 58 54 58 64 60 62 64 73 81 89 88 83 94 100 98 98 99 97 93
49 49 50 52 55 57 61 62 62 62 62 57 53 54 41 56 50 53 49 57 61 61 62 62 59 57 53 56 50 53 60 57 62 69 72 85 79 85 90 92 99 99 96 95 96
54 55 57 59 61 64 67 69 69 70 67 65 63 65 55 59 58 57 53 62 66 67 66 65 68 66 61 52 49 49 49 54 63 64 69 77 76 83 90 89 87 91 94 99 97
57 59 61 65 68 70 72 75 75 75 74 73 70 67 67 66 62 60 62 61 64 68 70 67 66 68 58 58 56 56 49 48 50 64 64 66 68 79 87 87 83 78 81 91 99
64 64 66 69 71 72 74 78 80 77 76 74 72 73 73 72 66 63 67 67 68 63 69 70 70 59 63 68 65 58 49 48 49 55 61 60 63 74 83 84 82 77 75 77 85
71 71 74 76 78 80 80 80 83 83 75 76 76 74 74 81 74 69 74 77 73 69 68 67 61 63 69 65 64 57 50 48 49 49 55 57 60 64 78 82 81 77 74 73 74
80 81 81 83 85 88 90 89 89 92 86 71 77 79 84 90 81 81 76 77 80 79 73 69 61 68 64 64 62 59 55 49 51 48 50 56 58 55 69 77 79 76 70 70 68
89 88 90 89 93 94 98 99 101 101 97 78 83 85 89 92 86 90 85 80 82 79 82 75 67 66 61 58 61 60 58 53 55 48 47 51 52 53 61 74 76 76 70 69 70
93 95 96 97 96 105 104 107 110 110 107 92 95 97 96 91 89 84 86 80 76 82 87 75 74 67 64 59 61 58 58 55 54 48 44 46 50 49 53 68 73 75 74 70 70
98 101 103 105 109 112 118 118 116 110 101 100 100 103 96 84 81 80 80 78 78 83 76 78 75 66 63 64 63 62 61 58 54 50 42 45 47 45 45 62 71 76 76 72 70
104 109 112 113 122 124 122 121 113 107 104 99 95 97 90 75 81 74 66 73 72 73 66 73 72 74 70 65 66 64 59 55 53 49 44 45 46 40 49 47 69 76 78 69 68
112 119 121 125 132 130 118 111 107 103 92 90 86 76 71 64 58 60 49 57 54 57 66 68 67 67 70 66 65 64 62 58 56 51 53 52 40 47 55 46 59 76 70 68 69
119 126 133 134 133 119 109 98 90 82 76 70 63 60 52 46 43 48 50 49 53 57 62 61 61 66 67 64 60 60 63 61 60 53 48 44 40 50 49 47 46 51 71 71 70
128 133 137 135 119 106 96 84 73 65 60 53 48 45 42 40 39 44 48 45 44 45 51 55 62 64 62 61 59 56 58 56 55 48 42 41 40 46 41 41 44 45 49 75 73
136 140 134 123 108 90 80 70 61 54 46 40 38 39 36 35 39 43 39 44 43 43 40 47 53 56 62 59 56 60 56 54 53 44 38 39 36 36 35 37 42 42 43 45 58
137 132 121 108 92 83 69 58 49 45 37 31 31 33 29 29 35 43 44 47 43 45 39 40 43 54 51 52 55 58 55 52 49 44 41 39 40 41 36 34 40 42 44 47 47
127 122 103 89 79 68 57 48 39 35 32 25 26 27 25 30 42 52 47 45 42 50 54 36 33 44 47 49 50 48 43 42 42 38 35 37 38 40 34 34 31 39 33 37 43
114 102 88 76 66 56 47 39 30 28 24 22 21 23 25 31 43 52 51 49 53 50 51 57 44 39 33 33 35 41 40 37 33 29 28 36 41 42 41 40 53 49 47 42 48
100 87 74 64 55 49 40 33 25 21 20 19 18 20 28 35 45 58 58 64 68 61 54 45 41 33 31 32 33 30 28 31 30 30 28 37 39 44 40 45 49 52 54 50 51
86 75 64 56 49 41 35 27 20 15 16 14 15 24 32 37 60 66 58 62 60 56 45 47 36 34 35 29 26 19 16 26 33 29 32 37 44 43 41 46 48 52 58 51 42
80 66 58 50 41 35 28 22 17 13 12 11 18 32 40 53 62 61 60 64 58 48 47 50 38 41 41 29 28 26 30 27 23 26 25 31 35 46 46 47 47 43 48 44 48

GFSSW_250_spd_114.txt.gz
Wind_Speed
25 24 19 20 19 16 17 14 14 15 12 13 20 34 45 55 67 82 92 95 95 98 100 103 105 102 100 102 101 102 96 96 96 93 94 95 90 89 85 84 86 82 72 66 60
31 26 22 20 21 22 24 23 22 21 18 15 16 19 27 39 48 55 58 64 74 90 99 105 105 108 110 111 109 107 104 103 106 107 101 105 101 94 91 91 87 87 81 72 69
35 34 26 25 23 24 25 28 29 28 25 24 23 22 24 31 37 43 48 57 58 65 76 90 103 108 107 109 110 114 111 111 111 110 109 113 109 105 100 93 93 90 90 83 78
34 27 30 30 28 30 31 32 32 30 28 30 27 29 27 33 33 26 41 45 45 42 52 65 70 72 82 89 101 106 105 105 108 109 114 110 114 114 110 105 101 92 91 89 88
40 42 33 32 34 34 35 36 38 35 36 36 37 35 38 39 32 27 34 31 43 47 48 47 45 54 62 69 70 64 75 85 93 106 109 111 109 113 110 109 105 103 99 99 102
52 50 42 41 41 41 44 46 46 45 44 42 41 43 42 46 40 35 42 46 39 39 53 54 56 51 43 48 53 59 64 68 74 82 90 102 102 103 104 108 106 105 104 108 110
57 57 54 47 45 48 48 51 53 52 52 51 48 44 46 57 49 50 52 56 53 51 47 55 59 55 57 53 49 49 48 51 57 66 72 82 93 91 93 103 108 106 105 104 105
62 62 60 57 53 55 56 58 58 55 58 59 58 55 53 63 62 59 59 61 62 59 60 53 54 54 56 61 57 53 47 45 48 57 66 76 66 80 85 101 98 105 105 106 103
67 68 65 61 61 64 65 64 64 59 59 61 61 61 58 67 71 71 63 62 68 64 66 63 59 51 56 63 63 55 54 61 59 56 54 59 58 68 77 86 95 97 100 103 103
71 72 71 70 71 70 68 70 70 66 65 66 65 66 69 72 75 75 75 70 68 70 67 66 67 65 61 53 60 66 70 69 57 59 53 49 52 61 68 72 78 89 92 95 98
76 76 75 76 79 79 77 76 77 73 71 71 72 71 71 80 78 79 81 77 75 72 70 70 67 57 69 71 72 76 67 60 59 63 56 49 45 53 58 64 68 75 84 88 93
84 83 85 84 85 86 86 86 83 84 77 76 80 80 83 93 79 82 84 84 83 78 78 75 62 70 74 75 74 68 68 62 63 60 58 57 44 46 53 56 63 67 75 82 84
89 90 90 88 90 91 92 91 95 98 93 80 84 89 94 97 90 85 96 86 86 87 83 80 71 75 77 80 76 63 58 61 60 63 55 56 42 41 48 52 55 60 67 74 79
97 95 94 92 93 99 104 103 108 111 107 88 95 101 106 100 97 98 100 92 92 88 90 85 77 75 75 76 73 68 65 64 62 65 56 55 45 42 46 48 52 55 63 63 71
101 101 100 102 101 109 111 114 112 115 116 108 109 108 104 96 94 94 98 91 84 88 96 81 85 81 78 73 78 64 73 70 65 59 58 48 44 40 41 42 46 52 57 57 61
101 107 111 112 118 117 118 121 116 116 108 101 100 94 89 81 80 85 95 90 90 95 96 89 88 86 76 79 77 77 73 68 65 59 52 46 42 39 41 45 45 51 55 52 56
108 116 122 124 123 124 120 116 111 101 94 81 81 82 79 70 69 75 86 84 83 89 88 86 86 83 80 77 75 72 71 65 64 55 43 47 44 43 48 48 47 52 46 46 52
119 126 126 133 127 116 107 98 91 83 76 68 62 62 62 66 57 56 68 72 73 76 81 80 81 74 75 71 71 68 68 64 62 53 50 52 48 45 55 48 46 46 44 45 47
124 130 135 131 116 102 93 86 78 69 65 56 56 51 49 52 47 44 51 57 55 61 71 73 71 77 78 72 72 63 62 64 68 61 57 53 48 52 43 42 39 41 44 38 45
128 132 129 121 108 94 80 70 64 58 54 50 46 44 39 39 35 36 39 47 43 52 57 57 62 69 66 70 70 65 62 66 62 60 54 51 52 51 45 42 39 41 43 40 40
132 131 122 109 94 87 79 58 55 48 44 41 37 33 33 28 30 30 36 41 46 50 46 47 53 58 63 64 57 59 61 62 60 59 53 49 49 51 44 39 39 41 41 42 40
130 124 110 95 81 74 67 57 48 43 38 32 28 26 24 23 28 31 36 44 46 44 43 48 51 52 53 55 58 60 60 55 55 52 47 48 48 45 41 38 37 35 35 39 40
123 115 95 84 72 60 54 48 40 36 32 26 19 23 21 22 30 37 41 46 48 44 44 43 48 52 53 54 57 52 49 48 51 49 47 48 44 45 44 40 37 34 36 39 43
112 97 87 73 62 54 45 39 33 31 26 19 17 20 19 23 31 35 35 44 51 51 51 48 42 42 39 40 42 45 47 49 49 48 49 46 43 42 44 43 38 33 33 39 39
102 88 75 65 55 47 40 33 28 25 21 15 13 14 19 27 32 33 40 44 47 50 48 41 37 35 38 42 47 50 51 48 45 45 41 41 42 42 40 40 37 35 27 32 29
92 80 69 58 48 40 33 27 20 15 14 12 10 14 22 30 31 44 47 47 51 51 50 42 37 34 27 32 39 40 35 38 39 38 36 38 40 38 39 37 38 36 50 49 46
88 72 61 51 41 34 27 20 14 12 8 9 13 19 26 32 35 55 56 57 55 57 49 44 46 37 29 37 35 34 34 35 35 38 37 37 40 38 35 31 32 34 52 59 53

GFSSW_250_spd_117.txt.gz
Wind_Speed
31 28 27 24 16 12 11 10 10 12 15 19 29 39 48 56 66 76 90 92 93 89 90 91 91 91 90 91 97 99 97 94 94 92 95 93 89 90 88 84 82 80 78 75 73
31 29 30 29 27 23 18 15 16 18 18 22 22 24 27 37 44 51 59 67 81 91 99 99 99 99 98 98 96 99 99 102 102 103 107 101 96 96 94 94 90 89 84 81 80
37 35 32 33 32 32 29 25 23 24 23 22 26 30 30 32 36 39 40 46 54 64 72 89 102 104 101 104 101 104 101 106 108 109 110 108 106 104 100 98 99 96 96 88 85
40 39 38 38 34 33 34 34 33 32 28 30 32 34 34 37 42 28 29 39 44 48 56 62 68 79 92 104 111 106 108 112 114 113 115 116 113 106 105 107 105 106 102 100 98
46 47 46 44 42 42 41 38 39 40 39 39 37 36 38 40 53 28 35 39 42 45 47 47 53 62 71 80 87 85 93 98 104 116 114 117 119 119 113 113 112 113 110 111 110
49 51 53 51 50 50 49 51 49 46 45 45 45 41 37 43 56 44 46 48 44 43 47 50 52 47 46 62 65 65 78 80 85 95 96 100 108 113 114 119 116 112 113 116 117
54 55 57 59 58 60 60 58 58 57 53 53 53 49 40 53 62 54 60 54 54 57 55 57 58 53 55 52 59 64 58 61 67 72 78 86 86 89 96 113 116 119 112 112 114
59 62 63 66 65 65 64 66 67 62 61 60 60 57 48 58 66 63 61 62 64 63 62 62 62 51 50 61 57 61 66 58 53 58 66 73 64 69 83 94 99 103 97 102 107
67 69 71 74 74 72 72 73 74 69 67 66 64 66 57 66 70 75 74 70 70 70 72 70 63 59 58 58 60 51 51 62 64 69 69 63 54 64 66 70 78 83 89 92 97
73 77 79 81 81 79 76 77 78 75 70 70 70 69 68 72 76 79 79 78 77 81 81 70 70 67 62 55 52 65 69 62 67 72 71 68 60 59 57 53 58 69 75 85 89
81 82 85 84 86 85 81 81 81 76 78 81 81 77 79 84 82 84 86 85 84 84 81 82 80 62 64 65 66 68 66 68 66 66 68 68 62 63 64 60 56 50 58 71 78
90 89 88 88 90 89 91 94 91 93 89 88 90 92 92 101 88 92 99 93 91 86 90 84 69 76 77 73 69 69 64 57 65 75 73 64 61 66 65 62 55 47 48 56 67
94 94 93 92 93 100 105 104 109 110 107 92 99 99 104 106 99 99 108 100 96 93 89 88 78 84 84 82 75 71 67 63 62 80 67 61 56 60 62 61 56 49 44 47 53
98 99 96 97 102 109 114 113 112 115 114 101 105 102 106 108 110 109 109 105 100 93 97 96 90 85 86 84 82 73 71 71 73 78 67 69 56 58 60 60 56 49 43 46 47
103 103 104 112 109 111 114 118 116 111 104 102 97 88 88 97 103 105 108 108 102 100 106 89 97 95 86 81 88 81 83 81 81 78 76 71 60 58 57 56 52 46 47 48 45
110 113 112 115 113 122 126 120 109 98 88 86 84 74 73 75 82 94 100 100 103 107 109 102 101 106 87 91 91 89 90 87 84 77 69 64 57 55 57 57 49 47 47 45 46
117 120 121 118 118 120 118 110 96 84 78 69 70 64 61 64 67 74 78 84 93 101 106 104 103 100 100 93 92 89 90 85 81 73 59 65 57 49 55 55 49 48 45 42 46
121 123 122 124 120 115 106 96 81 70 67 63 56 58 51 50 51 56 61 68 78 89 94 99 101 97 96 90 92 93 94 89 82 75 64 67 58 49 54 55 53 47 38 44 42
124 123 125 124 117 105 92 83 71 65 60 55 47 46 43 42 38 43 49 54 65 74 82 88 87 95 100 98 101 95 95 83 84 79 71 66 62 56 54 55 49 40 37 41 40
123 129 122 114 108 94 83 72 63 55 54 46 42 38 36 32 33 32 40 49 58 65 69 74 78 86 92 97 97 97 88 90 84 75 68 62 59 55 57 53 45 44 42 42 40
128 128 120 108 94 85 75 64 56 49 45 41 36 33 29 27 28 27 37 45 50 51 60 63 72 76 86 91 91 90 85 83 77 70 64 57 57 54 57 50 48 46 43 41 42
127 123 111 94 86 75 67 58 50 43 38 35 30 27 25 23 25 27 28 35 43 48 56 61 61 62 73 74 76 77 74 71 63 59 58 58 57 53 55 49 50 49 45 44 43
116 115 104 85 79 67 60 51 42 36 32 26 23 23 19 20 23 23 26 32 40 45 50 55 55 50 55 56 62 59 57 57 57 59 57 51 47 49 48 47 48 46 45 43 42
117 103 92 79 69 61 52 43 34 27 22 17 19 19 15 16 20 20 26 31 35 44 48 53 55 49 38 40 44 47 49 51 51 50 47 45 49 52 52 49 47 45 44 42 43
107 94 81 72 61 53 42 34 27 21 17 12 14 16 13 15 20 20 26 31 35 40 44 46 50 46 42 43 45 45 43 44 45 46 47 49 49 48 48 46 42 40 43 43 39
101 85 77 64 54 44 34 28 25 19 14 8 8 12 14 17 18 23 27 33 34 41 47 48 41 42 44 44 43 45 45 45 44 43 46 47 45 43 42 42 43 43 43 44 43
91 79 67 57 45 36 28 24 17 10 9 9 7 10 15 15 20 28 31 31 44 49 48 42 37 42 40 43 45 44 43 41 42 41 41 39 43 42 44 45 44 44 45 46 46

GFSSW_250_spd_123.txt.gz
Wind_Speed
22 25 23 22 19 13 12 12 13 14 16 22 26 29 34 46 58 67 75 77 78 76 89 92 90 91 91 88 89 89 82 84 86 89 94 88 83 80 76 78 77 71 69 68 68
24 22 21 24 26 24 23 21 20 19 22 24 25 31 35 41 46 52 59 68 75 81 87 90 97 96 96 99 96 93 93 92 94 97 99 93 89 86 83 79 79 78 78 77 74
29 30 29 26 26 26 30 31 31 32 34 32 33 35 39 47 52 56 55 56 60 66 74 84 87 92 94 97 96 98 96 101 101 105 104 97 94 91 89 88 86 87 86 85 83
34 34 32 37 36 35 34 38 39 42 41 44 42 42 42 53 59 58 55 61 65 66 68 72 75 79 86 92 98 97 99 101 104 105 104 105 104 97 96 99 95 92 93 94 92
41 41 42 41 43 43 46 46 48 51 52 50 49 49 49 53 69 56 61 64 68 70 72 73 72 73 75 81 88 92 94 99 105 105 104 104 102 101 97 99 98 95 96 98 100
47 45 44 45 48 51 55 58 57 60 60 61 57 55 53 61 68 64 63 70 73 73 74 76 79 79 76 74 77 79 85 91 97 101 103 104 104 104 102 101 99 95 92 92 95
52 51 52 51 53 56 62 64 65 64 66 68 68 62 61 66 70 70 71 68 71 75 79 82 81 80 79 77 75 75 76 78 82 88 94 98 101 100 100 104 106 109 105 102 101
56 55 56 61 62 64 68 70 72 72 72 73 72 71 63 73 78 76 76 76 75 76 79 85 86 83 80 78 77 76 75 73 71 75 78 84 76 79 80 87 86 90 97 108 111
60 60 62 66 73 73 73 74 75 76 79 80 79 82 80 81 84 85 85 83 83 85 86 87 85 85 84 81 80 74 69 65 69 71 74 70 66 68 72 74 75 77 76 80 87
70 68 70 73 76 78 82 83 83 81 81 87 89 91 97 97 96 95 94 92 93 90 93 93 89 80 82 80 69 70 75 71 72 71 75 72 67 69 71 71 70 72 70 67 66
77 78 76 78 79 85 87 87 90 92 91 92 98 100 105 110 107 105 101 99 95 97 98 101 100 86 68 78 85 85 84 83 82 80 80 79 78 74 77 74 69 64 63 66 65
81 82 79 85 85 87 87 95 99 103 95 99 105 111 105 106 107 111 110 110 107 103 108 108 97 82 94 85 84 89 88 85 85 85 83 81 79 77 77 75 72 71 69 64 67
87 86 90 88 92 97 98 102 103 109 119 99 104 110 111 109 114 115 113 115 111 113 112 111 95 108 102 97 94 91 90 90 90 89 85 82 81 79 77 75 70 66 69 69 67
90 93 94 90 96 96 98 109 112 117 123 119 114 110 103 99 96 101 107 107 108 115 120 119 101 108 107 99 99 96 94 95 95 93 90 89 84 81 76 70 65 64 63 61 64
101 101 101 97 98 99 101 105 114 117 120 110 97 84 78 75 74 77 83 85 90 102 111 102 108 113 112 100 102 97 101 99 100 98 95 92 87 77 75 66 63 63 60 58 54
105 100 101 99 99 106 110 111 114 115 103 89 76 69 63 59 58 61 64 72 77 82 88 99 107 113 109 109 107 112 107 109 108 104 102 87 87 76 71 65 66 62 60 57 52
105 106 102 100 104 107 109 109 109 97 83 73 66 59 53 49 48 48 53 59 65 70 77 83 90 103 110 115 116 117 116 113 112 108 88 92 90 71 70 67 67 63 61 57 56
111 104 106 110 107 108 108 108 95 80 71 62 56 50 43 41 42 42 46 53 58 62 69 71 77 88 97 101 114 115 111 111 106 96 83 87 83 73 66 68 65 63 60 60 58
115 114 119 111 108 107 102 92 79 71 62 54 47 42 38 35 36 35 38 43 49 52 60 65 68 76 82 94 104 113 117 111 113 105 100 91 85 78 75 71 72 67 62 59 62
121 119 116 108 105 98 87 78 70 58 51 44 37 33 31 27 27 29 31 33 40 46 52 58 59 61 69 81 93 104 104 117 115 109 104 90 86 82 75 72 72 68 63 62 62
127 128 113 107 96 86 77 67 56 47 40 34 29 27 27 23 24 24 24 28 33 39 43 44 49 53 58 61 75 87 105 111 113 110 104 95 87 83 76 74 73 67 64 63 62
129 117 108 103 89 79 67 56 46 38 32 29 26 25 22 18 16 14 19 24 29 32 34 34 39 42 48 58 66 74 89 101 102 100 98 95 90 87 78 76 74 70 65 63 61
124 111 107 93 82 69 57 48 40 34 29 25 23 20 17 14 11 10 17 20 23 24 26 26 31 35 36 44 51 60 72 90 101 106 101 93 83 81 76 75 75 71 65 63 59
118 105 102 85 73 61 51 43 35 30 26 21 18 15 13 11 7 9 13 14 16 17 18 24 28 29 32 36 45 49 58 70 81 91 94 89 84 84 82 80 79 76 72 64 57
110 106 94 80 67 57 49 40 34 28 24 19 17 13 10 7 6 10 10 11 14 17 22 26 27 24 24 29 37 42 50 57 64 77 83 86 84 84 84 82 78 76 70 64 58
107 100 87 73 62 54 46 37 31 28 24 19 15 9 4 2 6 9 11 15 18 23 26 30 32 28 24 27 30 30 34 43 56 66 73 81 83 85 85 81 74 67 60 58 57
108 100 84 70 59 52 43 35 30 26 19 13 7 3 3 5 7 13 16 20 25 27 28 27 28 28 25 19 16 15 22 32 44 53 61 65 68 68 65 65 62 58 59 57 55